Location: Central Falls
(41.8900°N, 71.3929°W)
Time: 12:40:50
(UTC+00:00)

Tiros 1 despin weight - Pass Details

Date: 09 December 2023
Orbit: 581 x 625 km, 48.2° (Epoch: 20 February)

Event Time Altitude Azimuth Distance (km) Brightness Sun altitude
Rises 02:14:52 0° 297° (WNW) 2,798 - -54.7°
Reaches altitude 10° 02:17:09 10° 299° (WNW) 1,897 - -55.1°
Maximum altitude 02:21:29 74° 25° (NNE) 608 - -55.8°
Drops below altitude 10° 02:25:50 10° 111° (ESE) 1,900 - -56.6°
Sets 02:28:07 0° 113° (ESE) 2,803 - -56.9°
